STARLINK-11747, 64322

Orbit data source: Space-Track

STARLINK-11747, 64322 is a payload satellite owned by SpaceX/Seattle (US) in LEO that was launched on Tue, 10 Jun 2025 UTC via an FALCON 9 launch vehicle from the Air Force Eastern Test Range (AFETR). Payload-class satellites include a variety of spacecraft equipped with specific instruments for various scientific and technological missions. These include communications satellites like Starlink; space stations such as the ISS; scientific satellites like the Hubble; Earth observation satellites from companies like Planet Labs, Umbra, and HawkEye 360; GPS; miniature CubeSats for education and research; and military/defense satellites.

Loading next visibility...
Identifier
64322, 2025-124F
Orbit
LEO
Last TLE update
19 hours ago
Origin
Manufacturer
SpaceX/Seattle
Mission
Operational spacecraft
Bus & Motor
STARLINK V2M, Unknown motor
Mass
730 kg wet, ~700 kg dry
Launch date (UTC)
2025-06-10 (1 month ago)
Launch vehicle
FALCON 9
Launch site
Air Force Eastern Test Range (AFETR)
Object type
Payload
Rocket body
Debris
Shape & HBR
Unknown
Radar Cross Section
Large (>1 m²)

Expand to show TLE details & history

TLE from 19 hours ago
0 STARLINK-11747
1 64322U 25124F   25199.57672974  .00131066  00000-0  10057-2 0  9996
2 64322  42.9997   0.4588 0002681 265.7031  94.3531 15.70913436  7174
Epoch: 2025-07-18T13:50Z
TLE epoch observation values (Epoch: 2025-07-18T13:50:29.449Z)
Latitude
0.00003°
Longitude
-143.79008°
Altitude
356.194 km
Speed
7.697 km/s
True Right ascension
00h 01m 50s
True Declination
0° 00' 00"
Sunlit
Object was in full shadow at epoch
Visualization orbit readout
Latitude
33.68114°
Longitude
-13.81533°
Altitude
358.352 km
Speed
7.699 km/s
Apparent Right ascension
09h 04m 19s
Apparent Declination
-1° 56' 44"
Sunlit
Object is in daylight
Visualization observer readout
Local Sidereal Time
21:30:12
Azimuth
10.442° NNE
Elevation
-51.577°
Doppler factor
1
Orbital elements
Apogee altitude
360.073 km
Perigee altitude
356.461 km
Semi-major axis
6,736.404 km
Eccentricity
0.00027
Inclination
42.9997°
RAAN
0.4588°
Arg. of periapsis
265.7031°
True anomaly
94.38373°
Mean anomaly
94.3531°
Eccentric anomaly
94.36842°
Mean motion
3.92555 °/min
Orbital period
91.71 mins
BSTAR
0.0010057
Loading maneuver chart data...
Loading SW <> Apogee altitude chart data...
Loading historical data...
Loading historical data...
Loading historical data...
Loading historical data...
Loading historical data...
Loading historical data...
Loading historical data...
|